Weather in Kochkoma

Russia / Republic of Karelia     64°02′01″N   34°14′22″E
temp.,
°C
wind,
m/s
gust,
m/s
humid.,
%
clouds,
%
prec.,
mm/h
press.,
hPa
HPBL,
m
31 july, sat
sat3100:00+13sw289214 0.3 995172
03:00+12ssw279677 0.3 995145
06:00+13sw279475 0.0 994208
09:00+17ssw237429 0.1 994467
12:00+21ssw235224 0.5 9931336
15:00+22sw125361 1.8 9941449
18:00+19nw1277100 1.6 994112
21:00+15ene129086 2.8 99648
1 august, sun
sun100:00+13ene119652 0.0 99714
03:00+12s119616 0.0 99811
06:00+13sw12946 0.0 99994
09:00+17sw237941 0.0 999550
12:00+21sw356027 0.4 9991378
15:00+23wsw3544100 0.9 9981997
18:00+19sse2566100 0.0 998149
21:00+16s2582100 0.0 998117
2 august, mon
mon200:00+14ssw289781 0.0 998180
03:00+12ssw279735 0.0 999156
06:00+14ssw27905 0.0 999205
09:00+19sw46686 0.0 999781
12:00+20ssw5771100 1.0 10001319
15:00+19sw4770100 1.4 10011121
18:00+18ssw377389 0.0 1001639
21:00+16se2583100 0.0 1001102
3 august, tue
tue300:00+15se2786100 0.0 1000159
03:00+14se2289100 0.2 99937
06:00+13s1296100 1.3 99883
09:00+14nnw3798100 10.6 996345
12:00+14nw3896100 2.6 996430
15:00+14wnw3696100 3.1 998403
18:00+15nw368640 0.1 999527
21:00+13wnw259373 0.1 1000189
4 august, wed
wed400:00+12nw3794100 0.0 1002493
03:00+10nw369198 0.1 1004500
06:00+9wnw3690100 0.0 1006583
09:00+9nw3686100 0.1 1009580
12:00+9nw4679100 0.0 1011688
15:00+9wnw3678100 0.1 1014503
18:00+14w245731 0.0 10141253
21:00+11s247289 0.1 101688